User: anonymous   Login
Location: Columbia
(38.9520°N, 92.3340°W)
Time: 01:08:19
(UTC-05:00)
Language:

SJ-11-01 - Orbit

View from above orbital plane
View from above orbital plane
View from above satellite
View from above satellite

Ground track
Ground track

The orbit data is extracted from the following two-line orbital elements,

1 36088U 09061A   14304.75703739  .00000969  00000-0  21036-3 0  5405
2 36088 098.0192 348.8316 0011852 020.3774 339.7887 14.60197647264663
Epoch (UTC): 31 October 2014 18:10:08
Eccentricity: 0.0011852
inclination: 98.0192°
perigee height: 684 km
apogee height: 701 km
right ascension of ascending node: 348.8316°
argument of perigee: 20.3774°
revolutions per day: 14.60197647
mean anomaly at epoch: 339.7887°
orbit number at epoch: 26466

The dashed part of the orbit path shows where the satellite is in the earth's shadow,  

DLR